NUSANTARA SATU

Last updated on Thu Aug 13 2026 00:03:01 GMT+0000 (Coordinated Universal Time)

1 44048U 19009A 26224.17318560 -.00000252 00000+0 00000+0 0 9994 2 44048 0.0278 123.1911 0004526 12.2307 33.5336 1.00272280 27339
UTC large
Height (km)
Speed (km/s)
/
Latitude / Longitude
Inclination (degrees)
Orbital Period (minutes)
Azimuth
Elevation
Range (km)
Doppler Factor

Next 0 passes for location: London (51.5072 / 0.1276)

No passes found over London.
NUSANTARA SATU